Tracking 35334 objects as of 13-Sep-2026
HD Live streaming from Space Station
objects crossing your sky now

ESAIL


ESAIL is no longer on orbit
ESAIL is classified as:


NORAD ID: 46273
Int'l Code: 2020-061B
Launch date: September 3, 2020
Source: Canada (CA)
Launch site: FRENCH GUIANA (FRGUI)
Decay date: 2025-03-03

Uplink (MHz):
Downlink (MHz):
Beacon (MHz):
Mode:
Call sign:
Status: Reentered

Your satellite tracking list
Your tracking list is empty




NASA's NSSDC Master Catalog

Two Line Element Set (TLE):
1 46273U 20061B   25062.37976666  .08475663  24574-5  45755-3 0  9991
2 46273  97.2434 143.5906 0010791 269.6184  90.3880 16.41512123250691
Source of the keplerian elements: AFSPC